THOR ABLESTAR DEB, 5716

Orbit data source: Space-Track

THOR ABLESTAR DEB, 5716 is space debris in LEO originally from a launch on Thu, 29 Jun 1961 UTC launched from the Air Force Eastern Test Range (AFETR). Debris objects in space refer to the collection of defunct objects orbiting the Earth. Examples of debris include non-operational satellites, rocket bodies, and fragments generated from explosions, collisions, or faulty payload assembly.

Loading next visibility...
Identifier
5716, 1961-015JT
Orbit
LEO
Country
Flag of USUS
Related business
Manufacturer
Unknown
Mission
Spacecraft
Bus & Motor
Unknown
Mass
Unknown
Launch date (UTC)
1961-06-29 (65 years ago)
Launch vehicle
Unknown
Launch site
Air Force Eastern Test Range (AFETR)
Object type
Payload
Rocket body
Debris
Shape & HBR
Unknown shape, 0.1 m
Radar Cross Section
Small (<0.1 m²)

Expand to show TLE details & history
Last TLE update: 2 days ago

TLE from 2 days ago
0 THOR ABLESTAR DEB
1 05716U 61015JT  26125.42271827  .00003211  00000-0  58713-3 0  9995
2 05716  66.6968  10.7746 0061587  46.0663 314.5512 14.66052759354131
Epoch: 2026-05-05T10:08Z
TLE epoch observation values (Epoch: 2026-05-05T10:08:42.858Z)
Latitude
Longitude
-4.70176°
Altitude
645.504 km
Speed
7.552 km/s
True Right ascension
00h 43m 05s
True Declination
0° 00' 00"
Sunlit
Object was in daylight at epoch
Visualization orbit readout
Latitude
Unknown
Longitude
Unknown
Altitude
Unknown
Speed
Unknown
Apparent Right ascension
Unknown
Apparent Declination
Unknown
Sunlit
N/A
Visualization observer readout
Local Sidereal Time
08:31:38
Azimuth
Unknown
Elevation
Unknown
Doppler factor
Unknown
Orbital elements
Apogee altitude
715.465 km
Perigee altitude
628.625 km
Semi-major axis
7,050.182 km
Eccentricity
0.00616
Inclination
66.6968°
RAAN
10.7746°
Arg. of periapsis
46.0663°
True anomaly
314.04555°
Mean anomaly
314.5512°
Eccentric anomaly
314.29865°
Mean motion
3.66642 °/min
Orbital period
98.19 mins
BSTAR
0.00058713
Loading maneuver chart data...
Computing Atmospheric mass density...

Documentation

Showing up to 5 results
|